Location: Unspecified
(50.7693°N, 0.0000°E)
Time: 15:12:36
(UTC+00:00)

Vanguard 2 - Pass Details

Date: 19 June 2019
Orbit: 553 x 2938 km, 32.9° (Epoch: 20 August)

Event Time Altitude Azimuth Distance (km) Brightness Sun altitude
Rises 09:07:10 0° 213° (SSW) 3,572 10.9 46.8°
Reaches altitude 10° 09:10:17 10° 195° (SSW) 2,945 10.7 47.2°
Maximum altitude 09:15:06 19° 153° (SSE) 2,838 11.3 47.9°
Drops below altitude 10° 09:21:31 10° 115° (ESE) 4,103 12.2 48.8°
Sets 09:27:02 0° 101° (E) 5,605 12.5 49.6°
